Flag for U.S.A. Weather past 2 weeks in Worcester, Massachusetts, U.S.A.

Now
64 °F

Clear.


Feels Like: 64 °F
Forecast: 65 / 84 °F
Wind: 12 mph from Southwest

Location: Worcester Regional Airport

Current Time: May 27, 2015 at 4:10:52 AM

Latest Report: May 27, 2015 at 2:54 AM


Visibility: 10 mi

Pressure: 30.15 "Hg

Humidity: 81%

Dew point: 58 °F

Location of WorcesterLocation

Historic Weather in Worcester — Graph

°F

Worcester temperature yesterday

Maximum temperature yesterday: 83 °F (at 5:54 PM)
Minimum temperature yesterday: 62 °F (at 5:54 AM)
Average temperature yesterday: 71 °F

Past Weeks' High & Low Weather Summary

 TemperatureHumidityPressure
High83 °F (May 26, 5:54 PM)97% (May 12, 8:54 AM)30.36 "Hg (May 12, 8:54 AM)
Low38 °F (May 23, 5:54 AM)17% (May 15, 3:54 PM)29.67 "Hg (May 12, 4:54 PM)
Average61 °F54%30.09 "Hg
* Reported May 12 2:54 AM — May 27 2:54 AM, Worcester, Weather by CustomWeather, © 2015

Note: Actual official high and low records may vary slightly from our data, if they occured in-between our weather recording intervals... More about our weather records

Advertising

Worcester weather history for previous 24 hours

 ConditionsComfort  
Time TempWeatherWind HumidityBarometerVisibility
2:54 AM
Wed, May 27
64 °FClear.12 mph81%30.15 "Hg10 mi
1:54 AM66 °FClear.14 mph78%30.16 "Hg10 mi
12:54 AM67 °FClear.13 mph76%30.16 "Hg10 mi
11:54 PM
Tue, May 26
67 °FClear.15 mph76%30.17 "Hg10 mi
10:54 PM68 °FClear.10 mph76%30.17 "Hg10 mi
9:54 PM70 °FClear.12 mph71%30.16 "Hg10 mi
8:54 PM72 °FSunny.9 mph64%30.15 "Hg10 mi
7:54 PM75 °FSunny.12 mph62%30.14 "Hg10 mi
6:54 PM79 °FSunny.14 mph54%30.14 "Hg10 mi
5:54 PM83 °FScattered clouds.12 mph48%30.13 "Hg10 mi
4:54 PM82 °FPassing clouds.12 mph49%30.13 "Hg10 mi
3:54 PM81 °FSunny.13 mph49%30.14 "Hg10 mi
2:54 PM79 °FSunny.14 mph54%30.15 "Hg10 mi
1:54 PM78 °FPassing clouds.12 mph54%30.16 "Hg10 mi
12:54 PM78 °FScattered clouds.13 mph52%30.17 "Hg10 mi
11:54 AM74 °FPassing clouds.12 mph60%30.18 "Hg10 mi
10:54 AM72 °FScattered clouds.14 mph61%30.18 "Hg10 mi
9:54 AM72 °FSunny.14 mph59%30.18 "Hg10 mi
8:54 AM69 °FScattered clouds.14 mph63%30.18 "Hg10 mi
7:54 AM65 °FScattered clouds.16 mph70%30.16 "Hg10 mi
6:54 AM64 °FPassing clouds.15 mph70%30.16 "Hg10 mi
5:54 AM62 °FPassing clouds.15 mph75%30.15 "Hg10 mi
4:54 AM63 °FClear.17 mph73%30.13 "Hg10 mi
Weather by CustomWeather, © 2015

See weather overviewHow to use our weather pages